Location: Carson
(33.8314°N, 118.2820°W)
Time: 14:00:39
(UTC+00:00)

Cosmos 1606 - Pass Details

Date: 23 November 2020
Orbit: 503 x 527 km, 82.5° (Epoch: 21 January)

Event Time Altitude Azimuth Distance (km) Brightness Sun altitude
Exits shadow 12:57:07 13° 358° (N) 1,558 5.0 -19.8°
Maximum altitude 13:00:28 73° 83° (E) 539 2.8 -19.1°
Drops below altitude 10° 13:04:14 10° 169° (SSE) 1,721 5.6 -18.4°
Sets 13:06:21 0° 171° (S) 2,598 6.6 -17.9°
